Probability
46 52 59 48 28 19 17 12 7 4 1 0 0 0 0 0 0 0 0 0 0 0 0 0 0 0 0 0 0 0 0 0 0 0 0 0 0 0 0 0 0 0 0
50 55 64 56 34 19 14 11 7 5 3 1 0 0 0 0 0 0 0 0 0 0 0 0 0 0 0 0 0 0 0 0 0 0 0 0 0 0 0 0 0 0 0
60 58 65 63 42 22 12 8 6 5 4 2 1 0 0 0 0 0 0 0 0 0 0 0 0 0 0 0 0 0 0 0 0 0 0 0 0 0 0 0 0 0 0
66 59 62 64 47 24 12 6 4 4 4 3 2 1 1 0 0 0 0 0 0 0 0 0 0 0 0 0 0 0 0 0 0 0 0 0 0 0 0 0 0 0 0
64 59 63 67 51 29 15 7 4 3 4 4 4 3 2 1 0 0 0 0 0 0 0 0 0 0 0 0 0 0 0 0 0 0 0 0 0 0 0 0 0 0 0
58 58 65 70 59 38 22 11 6 3 4 5 5 4 2 1 0 0 0 0 0 0 0 0 0 0 0 0 0 0 0 0 0 0 0 0 0 0 0 0 0 0 0
58 60 66 72 66 49 34 22 12 6 4 4 4 4 2 1 0 0 0 0 0 0 0 0 0 0 0 0 0 0 0 0 0 0 0 0 0 0 0 0 0 0 0
61 65 69 73 70 60 47 34 21 11 7 5 4 4 4 3 2 1 1 0 0 0 0 0 0 0 0 0 0 0 0 0 0 0 0 0 0 0 0 0 0 0 0
63 67 69 66 64 59 50 39 25 16 11 7 6 5 5 5 5 4 3 1 0 0 0 0 0 0 0 0 0 0 0 0 0 0 0 0 0 0 0 0 0 0 0
60 62 60 53 46 42 37 30 21 15 10 6 6 4 4 4 5 5 4 1 0 0 0 0 0 0 0 0 0 0 0 0 0 0 0 0 0 0 0 0 0 0 0
53 54 50 42 33 25 19 15 12 8 5 2 2 2 1 2 2 3 2 1 0 0 0 0 0 0 0 0 0 0 0 0 0 0 0 0 0 0 0 0 0 0 0
41 43 41 35 26 17 10 6 6 5 2 0 0 0 0 0 1 1 1 0 0 0 0 0 0 0 0 0 0 0 0 0 0 0 0 0 0 0 0 0 0 0 0
30 31 32 28 21 13 8 7 7 5 2 1 0 0 0 0 0 0 0 0 0 0 0 0 0 0 0 0 0 0 0 0 0 0 0 0 0 0 0 0 0 0 0
23 24 25 22 17 11 8 9 10 7 4 2 0 0 0 0 0 0 0 0 0 0 0 0 0 0 0 0 0 0 0 0 0 0 0 0 0 0 0 0 0 0 0
17 19 20 18 15 12 9 9 10 8 5 2 1 0 0 0 0 0 0 0 0 0 0 0 0 0 0 0 0 0 0 0 0 0 0 0 0 0 0 0 0 0 0
13 14 16 16 15 12 9 8 10 9 5 3 2 0 0 0 0 0 0 0 0 0 0 0 0 0 0 0 0 0 0 0 0 0 0 0 0 0 0 0 0 0 0
11 11 13 15 15 15 11 9 9 9 6 4 2 1 0 0 0 0 0 0 0 0 0 0 0 0 0 0 0 0 0 0 0 0 0 0 0 0 0 0 0 0 0
9 8 9 10 13 15 15 12 9 7 6 4 3 2 1 0 0 0 0 0 0 0 0 0 0 0 0 0 0 0 0 0 0 0 0 0 0 0 0 0 0 0 0
5 5 6 6 8 13 15 14 10 7 6 5 3 3 1 0 0 0 0 0 0 0 0 0 0 0 0 0 0 0 0 0 0 0 0 0 0 0 0 0 0 0 0
4 4 4 4 5 9 12 13 11 9 8 6 5 3 2 1 1 0 0 0 0 0 0 0 0 0 0 0 0 0 0 0 0 0 0 0 0 0 0 0 0 0 0
3 2 1 2 3 5 7 9 9 10 9 8 6 5 3 3 3 2 1 0 0 0 0 0 0 0 0 0 0 0 0 0 0 0 0 0 0 0 0 0 0 0 0
1 1 0 0 1 2 4 5 6 7 9 9 7 6 6 6 5 4 2 1 1 0 0 0 0 0 0 0 0 0 0 0 0 0 0 0 0 0 0 0 0 0 0
0 0 0 0 0 0 1 2 2 4 7 7 5 5 7 7 6 4 4 3 2 1 0 0 0 0 0 0 0 0 0 0 0 0 0 0 0 0 0 0 0 0 0
0 0 0 0 0 0 0 0 0 1 3 4 3 2 3 4 3 3 4 4 2 1 0 0 0 1 0 0 0 0 0 0 0 0 0 0 0 0 0 0 0 0 0
0 0 0 0 0 0 0 0 0 0 1 1 1 1 1 1 2 2 2 2 1 0 0 0 0 1 1 1 0 0 0 0 0 0 0 0 0 0 0 0 0 0 0
0 0 0 0 0 0 0 0 0 0 0 1 1 1 1 2 2 2 2 2 1 0 0 0 0 1 2 2 1 0 0 0 0 0 0 0 0 0 0 0 0 0 0
Wind_Speed
12 16 20 19 17 16 14 13 13 13 13 13 14 14 14 14 15 15 16 16 15 15 15 15 15 16 16 16 16 15 15 15 16 16 16 15 15 15 15 14 13 10 15
14 18 21 19 17 16 15 13 12 11 12 13 14 15 15 15 15 16 16 16 16 16 15 15 15 16 15 15 15 14 13 13 14 13 13 12 12 15 16 16 14 9 14
16 18 18 18 17 16 15 13 12 12 12 13 14 15 15 15 16 16 16 16 16 16 15 15 15 15 15 14 13 12 10 9 7 5 7 7 9 14 14 14 13 14 14
16 16 16 17 17 16 15 14 12 12 13 13 14 15 15 16 16 17 17 16 16 15 15 15 15 14 14 13 12 10 7 4 3 2 4 7 7 12 13 13 13 13 13
14 14 15 18 17 16 15 13 13 13 13 13 14 15 16 16 17 17 17 16 15 15 15 14 14 13 13 12 10 8 4 3 5 4 8 8 6 11 12 12 12 12 12
12 13 16 17 16 15 14 13 13 13 13 13 14 15 16 17 17 17 17 16 15 14 14 14 13 12 12 11 9 6 2 4 5 4 7 7 5 9 11 11 11 11 11
11 12 16 18 17 16 14 13 12 13 13 14 15 16 17 17 17 17 17 16 15 14 14 13 13 12 11 10 8 4 2 6 2 5 7 6 6 9 10 10 10 10 10
10 12 14 17 16 15 14 12 11 12 13 14 15 16 17 17 18 18 17 16 15 14 13 13 12 11 10 9 7 2 3 6 3 6 7 6 7 8 8 8 8 8 8
8 11 11 12 13 13 12 11 11 11 12 13 14 15 15 16 17 18 16 16 15 14 13 12 12 11 10 8 5 1 3 5 3 2 7 5 5 6 6 5 5 5 6
7 8 10 10 10 9 9 10 10 10 11 13 13 14 14 14 15 15 14 13 14 13 12 11 11 10 9 7 5 2 3 5 1 3 5 4 6 4 4 3 3 3 3
6 6 8 9 9 9 9 10 9 10 11 12 12 15 13 9 10 10 12 12 12 12 12 11 10 9 7 5 4 4 4 3 1 4 4 6 5 3 2 1 1 1 1
6 6 6 7 8 8 8 8 6 7 7 8 8 10 8 7 7 9 12 12 11 11 10 10 9 8 6 4 4 4 3 4 2 3 5 7 5 2 0 1 2 2 2
6 6 5 6 6 7 5 7 5 5 5 7 10 9 7 7 7 7 5 6 7 8 5 6 6 4 5 4 4 4 3 1 1 3 5 8 5 2 1 2 3 3 3
6 6 5 5 5 6 6 5 5 5 5 5 8 10 6 5 6 7 5 6 5 4 5 5 4 6 5 5 5 5 3 1 1 3 5 8 6 3 2 3 4 4 4
6 7 7 6 6 6 6 5 5 5 6 6 6 7 8 6 6 7 6 6 6 5 5 5 5 5 5 4 4 3 3 3 2 3 4 7 6 4 3 3 4 5 5
7 7 7 7 7 6 5 5 5 5 5 6 6 7 9 6 6 6 6 6 5 5 5 5 5 4 3 3 3 2 2 1 1 2 4 5 6 4 3 3 3 5 5
6 6 7 7 7 8 7 6 5 6 6 6 6 7 8 8 7 6 5 5 5 5 5 4 4 3 2 2 2 2 1 1 1 1 2 3 3 5 4 2 2 3 4
5 5 6 7 7 6 6 6 4 6 6 6 6 6 8 9 8 6 5 5 5 4 4 3 3 3 2 2 2 1 1 1 1 1 1 1 2 2 3 3 1 1 2
4 5 5 6 6 5 5 5 5 5 6 5 6 6 7 8 8 6 5 4 5 4 4 4 3 3 3 3 2 1 1 1 1 1 1 2 2 2 2 3 2 1 1
4 4 5 5 6 5 3 4 4 5 5 4 5 5 7 7 8 6 5 6 5 4 4 4 4 3 3 3 2 1 1 1 1 1 1 2 2 3 2 2 2 1 2
4 4 4 4 5 4 3 4 4 5 5 4 4 6 6 6 7 6 5 5 5 5 5 5 4 4 2 2 2 1 1 2 2 2 2 2 2 2 3 3 2 2 2
5 5 5 5 5 5 4 3 3 4 3 4 4 5 6 6 6 5 5 5 5 4 6 5 4 3 2 3 3 2 1 1 1 2 2 2 2 2 3 3 3 3 3
4 4 4 5 5 5 5 3 3 2 2 2 3 4 5 6 6 6 6 5 5 5 5 5 5 5 4 3 3 3 3 3 1 1 2 2 2 2 2 2 3 3 4
5 4 4 4 4 5 5 4 5 4 4 4 4 4 4 5 5 6 6 6 6 5 5 5 5 4 5 4 2 2 2 2 3 1 1 1 2 2 3 2 3 3 4
4 3 3 3 4 4 4 5 5 5 4 3 4 4 4 4 5 5 6 5 5 4 5 5 4 4 4 4 3 2 1 1 1 3 2 1 1 1 2 3 3 3 4
3 3 3 4 3 3 3 4 5 6 6 6 5 5 4 3 3 4 4 4 5 4 5 5 4 5 4 4 3 3 3 3 2 3 3 2 2 1 2 2 3 3 3
Wind_Direction
138 150 156 158 157 155 154 155 156 157 157 157 154 150 147 144 140 135 131 128 125 120 116 112 108 104 100 96 93 90 89 88 88 84 77 70 68 66 64 68 72 61 63
141 150 156 158 158 157 156 157 158 158 159 159 157 154 151 149 145 139 135 131 128 124 120 114 108 105 102 98 95 95 96 99 100 98 87 71 64 65 65 64 66 66 65
139 148 156 157 158 158 157 157 159 161 162 162 160 156 154 151 147 142 137 133 129 125 122 116 111 107 104 102 100 100 103 104 102 107 99 89 71 68 69 68 67 65 64
140 146 157 157 159 159 158 158 161 164 165 166 162 159 156 151 146 141 138 133 130 126 121 117 113 111 109 107 105 106 105 87 33 16 90 80 71 71 69 67 66 63 61
140 149 154 157 160 160 159 159 164 167 167 166 163 160 156 151 146 143 138 133 128 124 122 120 118 116 114 112 111 112 99 29 354 63 88 83 71 75 71 67 66 64 61
143 149 151 159 160 159 159 160 164 167 167 165 162 159 156 153 149 143 136 131 127 126 125 124 123 122 119 117 117 114 69 354 335 79 88 90 80 79 74 70 68 65 61
148 147 154 160 160 160 160 159 163 166 166 166 162 160 158 153 147 142 136 133 132 131 130 129 127 125 123 121 119 111 17 339 22 83 84 83 82 82 76 70 67 64 60
147 146 155 160 158 159 160 159 161 163 162 162 159 159 157 151 146 143 139 138 137 136 134 132 130 128 126 124 121 105 350 336 46 95 96 90 93 87 79 72 66 62 59
138 143 151 159 157 157 157 157 158 157 157 158 156 155 151 147 146 143 142 143 142 139 137 135 132 131 130 128 128 123 323 331 349 104 108 103 100 91 85 78 70 62 57
143 148 152 158 158 159 157 155 153 151 152 150 145 142 139 139 140 141 142 143 143 141 139 137 135 134 133 135 144 197 289 313 274 112 100 113 108 97 86 82 76 60 48
160 160 156 161 160 160 162 157 147 144 143 140 135 134 135 140 139 143 142 141 141 142 143 143 142 141 139 149 173 214 265 265 182 104 102 121 118 108 86 56 35 15 7
177 170 167 166 165 162 166 154 153 149 148 148 146 149 155 152 150 145 138 140 141 143 146 151 153 155 161 173 199 218 246 242 159 126 125 132 130 133 205 286 291 288 282
183 173 171 171 171 164 160 161 160 153 160 160 157 166 164 146 137 131 140 136 139 147 154 155 163 188 202 185 182 209 229 235 121 122 137 142 146 172 245 280 288 287 288
180 176 179 177 171 166 166 168 161 156 165 166 168 173 159 146 144 149 153 157 161 169 168 168 191 204 205 185 189 205 188 189 196 122 148 155 161 183 238 271 279 281 284
191 186 181 177 176 172 174 177 169 165 168 165 168 173 154 149 154 156 161 165 171 173 170 182 203 195 193 189 198 197 178 196 191 147 146 165 168 186 220 261 276 278 280
201 191 183 180 180 171 180 185 174 172 174 163 164 168 152 151 159 158 160 163 172 167 166 186 198 180 183 177 187 191 185 191 186 132 142 167 180 188 204 240 279 288 288
202 186 186 185 186 177 175 188 181 174 178 167 162 167 157 155 162 162 158 161 167 161 164 181 194 162 164 160 179 196 180 167 98 97 126 148 169 192 199 220 285 304 306
185 175 180 187 183 181 176 184 185 177 176 171 163 167 166 162 163 163 157 163 164 158 160 169 164 147 155 160 187 194 165 131 55 52 76 114 128 139 174 186 230 316 327
174 170 179 181 175 177 180 184 185 175 171 171 163 163 172 166 164 160 158 162 161 155 156 165 161 160 169 175 180 156 139 138 167 140 109 108 109 115 130 150 156 96 21
166 166 174 184 181 173 173 180 184 178 172 168 164 161 171 169 164 158 159 166 160 153 162 166 168 172 163 159 154 151 181 183 158 133 129 110 100 93 88 108 127 88 70
162 153 170 188 181 168 167 183 179 182 175 171 170 166 172 166 162 159 163 167 164 163 170 170 166 168 169 146 127 175 255 209 167 152 127 102 104 98 83 69 75 81 82
160 164 179 189 182 179 171 179 174 167 173 178 172 171 172 167 163 163 164 170 170 169 174 176 164 162 170 160 154 153 202 288 232 157 127 117 120 118 103 81 67 62 68
148 165 181 183 179 177 167 160 169 164 157 175 178 179 177 171 167 169 171 170 175 174 180 179 171 169 174 180 171 163 171 199 177 177 164 150 144 120 108 95 81 65 65
158 171 176 175 170 168 166 174 180 186 193 192 181 181 173 172 172 173 174 176 179 178 177 176 172 171 165 174 181 185 164 141 141 156 233 178 147 131 121 103 93 80 75
142 163 175 172 169 160 168 191 193 196 201 183 175 172 172 171 176 178 178 180 174 173 174 169 167 169 166 169 168 164 169 125 141 146 193 209 196 174 129 107 93 86 74
113 145 153 160 164 164 175 194 200 199 192 179 176 174 168 165 169 179 179 171 166 169 167 165 164 167 168 164 160 155 153 159 179 171 192 198 198 184 124 111 106 101 88